Regional Weather Roundup
Issued by NWS Sioux Falls, SD

Home | Current Version | Previous Version | Graphics & Text | Print | Product List | Glossary On
Versions: 1 2 3 4 5 6 7 8 9 10 11 12 13 14 15 16 17 18 19 20 21 22 23 24 25 26 27 28 29 30 31 32 33 34 35 36 37 38 39 40 41 42 43 44 45 46 47 48 49 50
453
ASUS43 KFSD 120710
RWRFSD

WEATHER ROUNDUP FOR SE SOUTH DAKOTA/SW MINNESOTA/NW IOWA
NATIONAL WEATHER SERVICE SIOUX FALLS SD
100 AM CST FRI FEB 12 2016

NOTE: "FAIR" INDICATES FEW OR NO CLOUDS BELOW 12,000 FEET WITH NO
SIGNIFICANT WEATHER AND OR OBSTRUCTIONS TO VISIBILITY.


SDZ038>040-050-052>070-120800-
SOUTHEAST SOUTH DAKOTA

CITY           SKY/WX    TMP DP  RH WIND       PRES   REMARKS
BROOKINGS      CLOUDY    17  13  84 N10       30.22R WCI   5
CHAMBERLAIN    CLOUDY    26  24  95 NW7       30.27R WCI  18
HURON          CLOUDY    18  14  84 N13       30.30R WCI   5
MADISON        CLOUDY    16  16 100 N10       30.22F WCI   3
MITCHELL       CLOUDY    22  19  89 N14       30.29R WCI   9
SIOUX FALLS    CLOUDY    15  11  83 W6        30.24S WCI   6
WINNER         CLOUDY    27  23  85 W7        30.26R WCI  19
YANKTON        PTCLDY    16  10  79 NW12      30.27S WCI   3
$$

MNZ071-072-080-081-089-090-097-098-120800-
SOUTHWEST MINNESOTA

CITY           SKY/WX    TMP DP  RH WIND       PRES   REMARKS
FAIRMONT       CLOUDY    16   9  73 W12       30.21S WCI   3
JACKSON        FLURRIES  14  10  85 NW7       30.20S WCI   4
LUVERNE        CLOUDY    18  14  86 NW6       30.24S WCI   9
MARSHALL       FLURRIES  15  11  83 NW12      30.25R WCI   2
MONTEVIDEO     CLOUDY    12  10  92 N14       30.27S WCI  -3
PIPESTONE      CLOUDY    18  10  73 N8        30.21S WCI   7
REDWOOD FALLS  CLOUDY    17  12  80 NW14      30.23S WCI   3
TRACY          CLOUDY    17  14  88 N13       30.23S WCI   4
WINDOM         FLURRIES  12   9  85 W6        30.20S WCI   3
WORTHINGTON    CLOUDY    16  10  79 NW10      30.21S WCI   3
$$

IAZ001>003-012>014-020>022-031-032-NEZ013-014-SDZ071-120800-
NORTHWEST IOWA

CITY           SKY/WX    TMP DP  RH WIND       PRES   REMARKS
CHEROKEE       CLOUDY    10   9  96 CALM      30.24F
DENISON        CLOUDY    18  16  93 CALM      30.21S
ESTHERVILLE    CLOUDY    10   7  87 W10       30.20F WCI  -4
LE MARS        CLOUDY    12  12 100 CALM      30.27S
ORANGE CITY    CLOUDY    10  10 100 NW5       30.23F WCI   2
SHELDON        CLOUDY    10   9  92 W5        30.22S WCI   2
SIOUX CITY     CLOUDY    19  15  84 N9        30.26S WCI   8
SPENCER        CLOUDY    11   7  84 NW5       30.22F WCI   3
STORM LAKE     CLOUDY    12  12 100 W8        30.22S WCI   1
$$

ABBREVIATIONS USED IN REMARKS
   TC - TEMPERATURE IN CELSIUS
  WCI - WIND CHILL INDEX
   HX - HEAT INDEX
  VSB - VISIBILITY





USA.gov is the U.S. government's official web portal to all federal, state and local government web resources and services.